Asheville, NC

4:00 AM EDT on July 24, 2017 (GMT -0400)
Asheville Regional

Weather History for KAVL - September, 2007

Change the Weather History Date:

Saturday, September 22, 2007

  Actual Average Record
Temperature  
Mean Temperature 74 °F 64 °F  
Max Temperature 84 °F 75 °F 91 °F (1933)
Min Temperature 63 °F 54 °F 35 °F (1918)
Degree Days  
Heating Degree Days 0 3  
Month to date heating degree days 18 23  
Since 1 July heating degree days 18 25  
Cooling Degree Days 9 2  
Month to date cooling degree days 107 84  
Year to date cooling degree days 920 841  
Growing Degree Days 23 (Base 50)    
Moisture  
Dew Point 63 °F    
Average Humidity 68    
Maximum Humidity 93    
Minimum Humidity 43    
Precipitation  
Precipitation T in 0.12 in 2.12 in (2003)
Month to date precipitation 3.40 2.87  
Year to date precipitation 25.82 34.48  
Snow  
Snow 0.00 in 0.00 in 0.00 in ()
Month to date snowfall 0.0 0.0  
Since 1 July snowfall 0.0 0.0  
Since 1 September snowfall 0.0 0.0  
Snow Depth -    
Sea Level Pressure  
Sea Level Pressure 30.15 in    
Wind  
Wind Speed 1 mph (SSE)    
Max Wind Speed 8 mph    
Max Gust Speed 14 mph    
Visibility 7 miles    
Events      
T = Trace of Precipitation, MM = Missing Value Source: NWS Daily Summary

Daily Weather History Graph

Daily Weather History Graph

Search for Another Location

Airport or City:

Trip Planner

Search our weather history database for the weather conditions in past years. The results will help you decide how hot, cold, wet, or windy it might be!

Date:

Astronomy

Sep. 22, 2007 Rise Set
Actual Time 7:17 AM EDT 7:27 PM EDT
Civil Twilight 6:52 AM EDT 7:52 PM EDT
Nautical Twilight 6:22 AM EDT 8:22 PM EDT
Astronomical Twilight 5:52 AM EDT 8:52 PM EDT
Moon 5:10 PM EDT (9/22) 2:20 AM EDT (9/22)
Length of Visible Light 13h 00m
Length of Day
12h 09m
Waxing Gibbous, 79% of the Moon is Illuminated
Sep 22
Waxing Gibbous
Sep 26
Full
Oct 3
Last Quarter
Oct 11
New
Oct 19
First Quarter

Hourly Weather History & Observations

Time (EDT) Temp. Heat Index Dew Point Humidity Pressure Visibility Wind Dir Wind Speed Gust Speed Precip Events Conditions
12:06 AM 66.2 °F - 62.6 °F 88% 30.16 in 8.0 mi SSE 3.5 mph - N/A   Mostly Cloudy
12:54 AM 64.9 °F - 63.0 °F 93% 30.11 in 6.0 mi Calm Calm - N/A   Mostly Cloudy
1:54 AM 66.0 °F - 63.0 °F 90% 30.11 in 7.0 mi Calm Calm - N/A   Overcast
2:54 AM 66.0 °F - 63.0 °F 90% 30.10 in 6.0 mi Calm Calm - N/A   Overcast
3:30 AM 66.2 °F - 62.6 °F 88% 30.17 in 6.0 mi Calm Calm - N/A   Overcast
3:43 AM 66.2 °F - 62.6 °F 88% 30.17 in 6.0 mi South 3.5 mph - N/A   Overcast
3:54 AM 66.0 °F - 63.0 °F 90% 30.10 in 6.0 mi Calm Calm - N/A   Overcast
4:13 AM 64.4 °F - 62.6 °F 94% 30.17 in 6.0 mi Calm Calm - N/A   Scattered Clouds
4:35 AM 64.4 °F - 62.6 °F 94% 30.16 in 6.0 mi Calm Calm - N/A   Mostly Cloudy
4:54 AM 64.9 °F - 62.1 °F 90% 30.10 in 5.0 mi Calm Calm - N/A   Mostly Cloudy
5:54 AM 64.9 °F - 63.0 °F 93% 30.12 in 4.0 mi Calm Calm - N/A   Overcast
6:16 AM 64.4 °F - 62.6 °F 94% 30.18 in 6.0 mi Calm Calm - N/A   Mostly Cloudy
6:54 AM 64.0 °F - 61.0 °F 90% 30.13 in 4.0 mi Calm Calm - N/A   Scattered Clouds
7:31 AM 64.4 °F - 62.6 °F 94% 30.20 in 4.0 mi NNW 3.5 mph - N/A   Mostly Cloudy
7:46 AM 64.4 °F - 62.6 °F 94% 30.20 in 4.0 mi NNE 3.5 mph - N/A   Overcast
7:54 AM 66.0 °F - 63.0 °F 90% 30.14 in 4.0 mi Calm Calm - N/A   Overcast
8:52 AM 66.2 °F - 62.6 °F 88% 30.22 in 4.0 mi Calm Calm - N/A   Mostly Cloudy
8:54 AM 66.9 °F - 63.0 °F 87% 30.16 in 4.0 mi Calm Calm - N/A   Mostly Cloudy
9:54 AM 70.0 °F - 64.0 °F 81% 30.16 in 5.0 mi Calm Calm - N/A   Haze
10:54 AM 73.9 °F - 64.0 °F 71% 30.15 in 10.0 mi South 5.8 mph - N/A   Mostly Cloudy
11:01 AM 73.4 °F - 64.4 °F 73% 30.22 in 10.0 mi SSE 6.9 mph - N/A   Scattered Clouds
11:54 AM 75.9 °F - 64.0 °F 67% 30.15 in 10.0 mi Variable 3.5 mph - N/A   Partly Cloudy
12:54 PM 78.1 °F - 63.0 °F 60% 30.14 in 10.0 mi Variable 5.8 mph - N/A   Clear
1:54 PM 80.1 °F 80.9 °F 60.1 °F 50% 30.12 in 10.0 mi Calm Calm - N/A   Partly Cloudy
2:54 PM 82.9 °F 82.8 °F 59.0 °F 44% 30.09 in 10.0 mi Calm Calm - N/A   Clear
3:54 PM 82.9 °F 82.6 °F 57.9 °F 42% 30.08 in 10.0 mi Calm Calm - N/A   Scattered Clouds
4:54 PM 81.0 °F 81.3 °F 59.0 °F 47% 30.09 in 10.0 mi Calm Calm - N/A   Overcast
5:54 PM 79.0 °F - 63.0 °F 58% 30.11 in 10.0 mi Variable 3.5 mph - 0.00 in   Mostly Cloudy
6:54 PM 78.1 °F - 63.0 °F 60% 30.12 in 10.0 mi SE 3.5 mph - N/A   Partly Cloudy
7:54 PM 73.9 °F - 64.0 °F 71% 30.14 in 10.0 mi Calm Calm - N/A   Partly Cloudy
8:54 PM 72.0 °F - 64.0 °F 76% 30.16 in 10.0 mi Calm Calm - N/A   Clear
9:54 PM 69.1 °F - 64.0 °F 84% 30.17 in 10.0 mi Calm Calm - N/A   Clear
10:54 PM 66.9 °F - 64.0 °F 90% 30.19 in 8.0 mi Calm Calm - N/A   Clear
11:54 PM 64.9 °F - 62.1 °F 90% 30.18 in 7.0 mi Calm Calm - N/A   Clear